DW1345 Weather Reports


time (UTC)temp
F
wind
direction
speed
knots
gust
knots
rain 1hr
in
rain 24hr
in
rain mn
in
humidity
%
barometer
mb
20260902003046 43 228 0.0 0.0 0.00 0.00 0.00 94 1004.8
20260902001544 43 228 0.0 0.0 0.00 0.00 0.00 94 1004.8
20260902000043 44 228 0.0 0.0 0.00 0.00 0.00 94 1004.9
20260901234546 44 230 0.0 0.0 0.00 0.00 0.00 93 1005.0
20260901233038 44 230 0.0 0.0 0.00 0.00 0.00 93 1005.1
20260901231541 45 230 0.0 0.0 0.00 0.00 0.00 93 1005.2
20260901230032 45 230 0.0 0.0 0.00 0.00 0.00 93 1005.3
20260901224530 46 230 0.0 0.0 0.00 0.00 0.00 92 1005.3
20260901223027 47 230 0.0 0.0 0.00 0.00 0.00 92 1005.2
20260901221555 47 230 0.0 0.0 0.00 0.00 0.00 92 1005.4
20260901220036 48 230 0.0 0.0 0.00 0.00 0.00 92 1005.6
20260901214519 49 232 0.0 0.0 0.00 0.00 0.28 92 1005.6
20260901213022 49 232 0.0 0.0 0.00 0.00 0.28 91 1005.7
20260901211516 50 232 0.0 0.0 0.00 0.00 0.28 91 1005.8
20260901210011 51 232 0.0 0.0 0.00 0.00 0.28 91 1005.9
20260901204516 51 232 0.0 0.0 0.00 0.00 0.28 92 1005.9
20260901203010 51 232 0.0 0.0 0.00 0.00 0.28 91 1005.8
20260901201508 51 232 0.0 0.0 0.00 0.00 0.28 91 1005.8
20260901200022 52 232 0.0 0.0 0.00 0.00 0.28 90 1005.9
20260901194508 52 231 0.0 0.0 0.00 0.00 0.28 90 1006.0
20260901193008 52 231 0.0 0.0 0.00 0.00 0.28 89 1006.1
20260901191518 52 231 0.0 0.0 0.00 0.00 0.28 89 1006.0
20260901190007 52 231 0.0 0.0 0.00 0.00 0.28 88 1006.1
20260901184508 52 231 0.9 0.0 0.00 0.00 0.28 88 1006.1
20260901183006 52 223 0.9 0.0 0.00 0.00 0.28 87 1006.2
20260901181506 52 226 0.9 0.0 0.00 0.00 0.28 88 1006.3
20260901180005 52 227 0.9 0.0 0.00 0.00 0.28 88 1006.2
20260901174504 52 242 0.9 0.0 0.00 0.00 0.28 88 1006.3
20260901173003 52 219 1.7 0.0 0.00 0.00 0.28 88 1006.2
20260901171503 53 224 0.0 0.0 0.00 0.00 0.28 89 1006.1
20260901170001 53 223 0.0 0.0 0.00 0.00 0.28 89 1006.1
20260901164502 53 223 1.7 0.0 0.00 0.00 0.28 89 1006.1
20260901163100 53 231 1.7 0.0 0.00 0.00 0.28 89 1006.0
20260901161559 53 227 1.7 0.0 0.00 0.00 0.28 89 1006.1
20260901160115 53 227 2.6 0.0 0.00 0.00 0.28 90 1005.9
20260901154558 53 223 0.9 0.0 0.00 0.00 0.28 91 1006.0
20260901153114 53 225 0.9 0.0 0.00 0.00 0.28 91 1006.0
20260901151557 53 230 0.9 0.0 0.00 0.00 0.28 91 1005.8
20260901150111 53 227 0.9 0.0 0.00 0.00 0.28 91 1005.9
20260901144600 53 232 0.9 0.0 0.00 0.00 0.28 90 1005.9
20260901143113 53 281 0.9 0.0 0.00 0.00 0.27 90 1005.9
20260901141603 53 279 2.6 0.0 0.00 0.00 0.27 90 1005.9
20260901140131 53 298 1.7 0.0 0.00 0.00 0.27 91 1005.8
20260901134554 53 297 1.7 0.0 0.00 0.00 0.27 91 1005.8
20260901133055 53 302 0.9 0.0 0.00 0.00 0.27 91 1005.8
20260901131553 53 307 1.7 0.0 0.00 0.00 0.27 90 1005.8
20260901130052 53 285 2.6 0.0 0.00 0.00 0.27 90 1005.8
20260901124556 53 301 1.7 0.0 0.00 0.00 0.27 90 1005.7
20260901123052 53 315 1.7 0.0 0.00 0.00 0.27 92 1005.7
20260901121553 53 235 0.9 0.0 0.00 0.00 0.27 93 1005.7
20260901120048 52 291 0.9 0.0 0.00 0.00 0.27 94 1005.5
20260901114550 52 293 0.9 0.0 0.00 0.00 0.27 94 1005.5
20260901113046 52 305 0.9 0.0 0.00 0.00 0.27 95 1005.4
20260901111545 52 232 1.7 0.0 0.00 0.00 0.27 95 1005.2
20260901110044 51 225 2.6 0.0 0.00 0.00 0.27 95 1005.2
20260901104545 51 218 3.5 0.0 0.00 0.00 0.27 94 1005.1
20260901103042 51 241 3.5 0.0 0.00 0.00 0.27 94 1005.0
20260901101556 51 227 2.6 0.0 0.00 0.00 0.27 93 1004.8
20260901100046 52 267 1.7 0.0 0.00 0.00 0.27 93 1004.5
20260901094541 52 287 1.7 0.0 0.00 0.00 0.27 93 1004.5
20260901093034 52 220 0.9 0.0 0.00 0.00 0.27 93 1004.2
20260901091548 52 298 1.7 0.0 0.00 0.00 0.27 93 1004.1
20260901090036 52 306 2.6 0.0 0.00 0.00 0.27 93 1004.0
20260901084538 52 291 1.7 0.0 0.00 0.00 0.27 93 1004.0
20260901083039 52 292 2.6 0.0 0.00 0.00 0.27 94 1003.8
20260901081527 52 304 2.6 0.0 0.00 0.00 0.27 94 1003.9
20260901080058 52 296 1.7 0.0 0.00 0.00 0.26 94 1003.6
20260901074523 52 298 0.9 0.0 0.00 0.00 0.26 94 1003.4
20260901073023 52 311 1.7 0.0 0.00 0.00 0.26 94 1003.3
20260901071521 52 302 2.6 0.0 0.00 0.00 0.26 94 1003.2
20260901070028 52 294 2.6 0.0 0.00 0.00 0.26 95 1002.9
20260901064518 52 289 2.6 0.0 0.00 0.00 0.26 95 1002.7
20260901063018 53 219 0.0 0.0 0.00 0.00 0.26 96 1002.5
20260901061517 53 219 0.0 0.0 0.00 0.00 0.26 96 1002.4
20260901060016 53 220 0.0 0.0 0.00 0.00 0.25 96 1002.4
20260901054515 53 229 0.9 0.0 0.00 0.00 0.24 96 1002.2
20260901053017 53 196 0.9 0.0 0.00 0.00 0.23 95 1002.2
20260901051513 53 171 0.0 0.0 0.00 0.00 0.21 95 1002.1
20260901050113 53 171 0.0 0.0 0.00 0.00 0.20 95 1002.1
20260901044513 53 171 0.0 0.0 0.00 0.00 0.19 95 1002.1
20260901043024 53 171 0.0 0.0 0.00 0.00 0.18 95 1002.0
20260901041515 53 171 0.0 0.0 0.00 0.00 0.17 95 1002.1
20260901040012 53 171 0.0 0.0 0.00 0.00 0.16 95 1002.1
20260901034514 53 171 0.0 0.0 0.00 0.00 0.15 95 1002.1
20260901033017 53 171 0.0 0.0 0.00 0.00 0.14 95 1002.1
20260901031509 53 171 0.0 0.0 0.00 0.00 0.13 95 1002.0
20260901030014 53 171 0.0 0.0 0.00 0.00 0.11 95 1002.1
20260901024508 53 171 0.0 0.0 0.00 0.00 0.10 95 1002.0
20260901023007 53 171 0.0 0.0 0.00 0.00 0.09 95 1002.1
20260901021507 53 171 0.0 0.0 0.00 0.00 0.08 95 1002.1
20260901020011 53 171 0.0 0.0 0.00 0.00 0.06 95 1002.2
20260901014505 53 171 0.0 0.0 0.00 0.00 0.06 95 1002.2
20260901013007 53 171 0.0 0.0 0.00 0.00 0.04 95 1002.1
20260901011503 53 171 0.0 0.0 0.00 0.00 0.02 94 1002.1
20260901010002 53 171 0.0 0.0 0.00 0.00 0.02 94 1002.2
20260901004501 53 171 0.0 0.0 0.00 0.00 0.01 95 1002.2